Regional Weather Roundup
Issued by NWS Cleveland, OH

Home | Current Version | Previous Version | Text Only | Print | Product List | Glossary Off
Versions: 1 2 3 4 5 6 7 8 9 10 11 12 13 14 15 16 17 18 19 20 21 22 23 24 25 26 27 28 29 30 31 32 33 34 35 36 37 38 39 40 41 42 43 44 45 46 47 48 49 50

000
ASUS41 KCLE 271400
RWRCLE
OHIO REGIONAL WEATHER ROUNDUP
NATIONAL WEATHER SERVICE WILMINGTON, OH
900 AM EST THU NOV 27 2014

NOTE: "FAIR" INDICATES FEW OR NO CLOUDS BELOW 12,000 FEET WITH NO
SIGNIFICANT WEATHER AND/OR OBSTRUCTIONS TO VISIBILITY.

OHZ001>008-015>018-024>027-034-035-043-044-271500-
   NORTHWEST OHIO

CITY           SKY/WX    TMP DP  RH WIND       PRES   REMARKS
DEFIANCE       CLOUDY    30  21  69 W3        30.20R
FINDLAY        LGT SNOW  30  24  78 NW9       30.17R WCI  22
TOLEDO EXPRESS CLOUDY    29  20  69 NW7       30.18R WCI  22
TOLEDO METCALF CLOUDY    30  22  72 W7        30.18R WCI  23
LIMA           LGT SNOW  30  23  75 NW12      30.18R WCI  20
$$

OHZ009>014-019>023-028>033-038-089-271500-
   NORTHEAST OHIO

CITY           SKY/WX    TMP DP  RH WIND       PRES   REMARKS
CLE-HOPKINS    LGT SNOW  32  26  78 NW9       30.13R WCI  24
CLE-LAKEFRONT  CLOUDY    34  26  72 NW17      30.10R WCI  23
CUY CO. ARPT   LGT SNOW  34  30  86 NW12      30.09R WCI  25
LORAIN-ELYRIA  LGT SNOW  31  25  78 NW13      30.13R WCI  21
ASHTABULA      LGT SNOW  32  29  88 W5        30.06R FOG     WCI  27
AKRON-CANTON   LGT SNOW  33  29  85 NW6       30.06R FOG     WCI  28
WOOSTER        NOT AVBL
MANSFIELD      CLOUDY    29  26  89 NW12      30.11R WCI  19
YOUNGSTOWN     LGT SNOW  32  30  92 W6        30.04R FOG     WCI  26
$$

OHZ042-051>053-060>062-070>072-077>081-271500-
  SOUTHWEST OHIO

CITY           SKY/WX    TMP DP  RH WIND       PRES   REMARKS
CINC-COVINGTON CLOUDY    30  20  66 NW10G20   30.23R WCI  21
CINC-LUNKEN    CLOUDY    31  23  72 NW7       30.27R WCI  24
HAMILTON       CLOUDY    31  24  75 NW10      30.25R WCI  22
DAYTON         NOT AVBL
WRIGHT-PAT AFB NOT AVBL
DAYTON GENERAL CLOUDY    30  24  78 NW10      30.20R WCI  21
WILMINGTON     CLOUDY    29  24  82 NW13G21   30.19R HAZE    WCI  19
$$

OHZ036-037-039>041-045>050-054>059-063>069-073>076-082>088-271500-
  CENTRAL AND SOUTHEAST OHIO

CITY           SKY/WX    TMP DP  RH WIND       PRES   REMARKS
COLUMBUS       CLOUDY    31  26  82 NW8       30.15R HAZE    WCI  23
OSU AIRPORT    CLOUDY    31  25  78 NW10      30.15R HAZE    WCI  22
BOLTON FIELD   NOT AVBL
RICKENBACK AFB NOT AVBL
NEWARK         CLOUDY    32  27  81 NW8       30.12R HAZE    WCI  25
MARION         LGT SNOW  29  24  82 NW16      30.15R WCI  17
LANCASTER      CLOUDY    32  27  81 NW7       30.14R HAZE    WCI  26
ZANESVILLE     CLOUDY    31  26  82 W6        30.11R HAZE    WCI  25
NEW PHILLY     LGT SNOW  33  28  81 CALM      30.09R
$$



USA.gov is the U.S. government's official web portal to all federal, state and local government web resources and services.